Back to catalog

FENGYUN 1C DEB

AliveSSO
NORAD 36224·DEBRIS·🇨🇳 China

Launched May 10, 1999 from Taiyuan Satellite Launch Center

Loading…

Next Passes (next 24 hours)

TLE

AgingSource: Space-Track

Epoch: Sep 9, 2026, 08:38 UTC

1 36224U 99025DUZ 26252.36007830  .00000091  00000-0  68553-4 0  9997
2 36224  98.7438 298.8883 0113670 302.2661  56.7537 14.12877828682537

Track FENGYUN 1C DEB in real time with AllMySat

Download on the App Store